loading
DOY 175 | 2024-06-23T18:23:52Z

ATLAS CENTAUR 2 R/B, 694

Orbit data source: Space-Track

ATLAS CENTAUR 2 R/B, 694 is space debris in LEO originally from a launch on Wed, 27 Nov 1963 UTC via an Atlas Centaur launch vehicle from the Air Force Eastern Test Range (AFETR). Debris objects in space refer to the collection of defunct objects orbiting the Earth. Examples of debris include non-operational satellites, rocket bodies, and fragments generated from explosions, collisions, or faulty payload assembly.

Loading next visibility...
Loading greatness...
ATLAS CENTAUR 2 R/B details
NORAD ID694
COSPAR ID
1963-047A
Orbit
LEO
Last TLE update20 hours ago
Origin
Flag of USNASA LeRC (US)
ManufacturerGD/Convair
BusAC R&D
MotorUnknown
Mass4,300 kg wet, 900 kg dry
Launch date (UTC)
1963-11-27 (61 years ago)
Launch vehicle
Atlas Centaur
Launch site
Air Force Eastern Test Range (AFETR)
Object type
Payload
Rocket body
Debris
Radar Cross Section7.4 m², Large (>1 m²)
Predictive object data (real-time)
Latitude6.28677°
Longitude-157.14108°
Altitude468.463 km
Speed7.841 km/s
Apparent Right ascension05h 31m 53s
Apparent Declination-60° 10' 11"
Sunlit
Object is in daylight
Predictive observer data (real-time)
Local Sidereal Time05:33:03
Azimuth180.146° SSW
Elevation-10.086°
Doppler factor1
Orbital elements
Apogee1,281.144 km
Perigee461.479 km
Semi-major axis7,249.448 km
Eccentricity0.0565329
Inclination30.3571°
RAAN77.1368°
Arg. of periapsis350.0048°
True anomaly10.05599°
Mean anomaly8.9704°
Mean motion3.5163 °/min
BSTAR0.00041876
Period102.38 mins
Definitive object data (Epoch: 2024-06-22T21:55:00.844Z)
Latitude
Longitude-163.18643°
Altitude462.16 km
Speed7.847 km/s
True Right ascension05h 08m 32s
True Declination0° 00' 00"
Sunlit
Object was in daylight at TLE epoch
TLE from 20 hours ago
0 ATLAS CENTAUR 2 R/B
1 00694U 63047A   24174.91320422  .00003391  00000-0  41876-3 0  9995
2 00694  30.3571  77.1368 0565329 350.0048   8.9704 14.07616981 43369
Epoch: 2024-06-22T21:55Z
No data available

ATLAS CENTAUR 2 R/B Visibility forecast

Observer location: 39.9160978°, -105.1181434, 0m alt.

ATLAS CENTAUR 2 R/B is not visible in the next 10 days
Span
Click to sort rows by Start time (UTC) header in descending order
Start Az.
Max El. time (UTC)
Max El. Az.
Max El.
End time (UTC)
End Az.